QPF
0.00 0.00 0.00 0.00 0.00 0.00 0.00 0.00 0.00 0.00 0.00 0.00 0.00 0.00 0.00 0.00 0.00 0.00 0.00 0.00 0.00 0.00 0.00 0.00 0.00 0.00 0.00 0.00 0.00 0.00 0.00 0.00 0.00 0.00 0.00 0.00 0.00 0.00 0.00 0.00 0.01 0.01 0.00 0.00 0.00 0.00 0.01 0.04 0.07
0.00 0.00 0.00 0.00 0.00 0.00 0.00 0.00 0.00 0.00 0.00 0.00 0.00 0.00 0.00 0.00 0.00 0.00 0.00 0.00 0.00 0.00 0.00 0.00 0.00 0.00 0.00 0.00 0.00 0.00 0.00 0.00 0.00 0.00 0.00 0.00 0.00 0.00 0.00 0.00 0.00 0.00 0.00 0.00 0.00 0.00 0.00 0.03 0.10
0.00 0.00 0.00 0.00 0.00 0.00 0.00 0.00 0.00 0.00 0.00 0.00 0.00 0.00 0.00 0.01 0.00 0.00 0.00 0.00 0.00 0.00 0.00 0.00 0.00 0.00 0.00 0.00 0.00 0.00 0.00 0.00 0.00 0.00 0.00 0.00 0.00 0.00 0.00 0.00 0.00 0.00 0.00 0.00 0.00 0.00 0.00 0.00 0.00
0.00 0.00 0.00 0.00 0.00 0.00 0.00 0.00 0.00 0.00 0.00 0.00 0.00 0.00 0.00 0.00 0.00 0.00 0.00 0.00 0.00 0.00 0.00 0.00 0.00 0.00 0.00 0.00 0.00 0.00 0.00 0.00 0.00 0.00 0.00 0.00 0.00 0.00 0.00 0.00 0.00 0.00 0.00 0.00 0.00 0.00 0.01 0.00 0.00
0.00 0.00 0.00 0.00 0.00 0.00 0.00 0.00 0.00 0.00 0.00 0.00 0.00 0.00 0.00 0.00 0.00 0.00 0.00 0.00 0.00 0.00 0.00 0.00 0.00 0.00 0.00 0.00 0.00 0.00 0.00 0.00 0.00 0.00 0.00 0.00 0.00 0.00 0.00 0.00 0.00 0.00 0.00 0.00 0.00 0.00 0.02 0.02 0.00
0.00 0.00 0.00 0.00 0.00 0.00 0.00 0.00 0.00 0.00 0.00 0.00 0.00 0.00 0.00 0.00 0.00 0.00 0.00 0.00 0.00 0.00 0.00 0.00 0.00 0.00 0.00 0.00 0.00 0.00 0.00 0.00 0.00 0.00 0.00 0.00 0.00 0.00 0.00 0.00 0.00 0.00 0.00 0.00 0.00 0.00 0.00 0.00 0.00
0.00 0.00 0.00 0.00 0.00 0.00 0.00 0.00 0.00 0.00 0.00 0.00 0.00 0.00 0.00 0.00 0.00 0.00 0.00 0.00 0.00 0.00 0.00 0.00 0.00 0.00 0.00 0.00 0.00 0.00 0.00 0.00 0.00 0.00 0.00 0.00 0.00 0.00 0.00 0.00 0.00 0.00 0.00 0.00 0.00 0.00 0.00 0.00 0.00
0.00 0.00 0.00 0.00 0.00 0.00 0.00 0.00 0.00 0.00 0.00 0.00 0.00 0.00 0.00 0.00 0.00 0.01 0.01 0.01 0.00 0.00 0.00 0.00 0.00 0.00 0.00 0.00 0.00 0.00 0.00 0.00 0.00 0.00 0.00 0.00 0.00 0.00 0.00 0.00 0.00 0.00 0.00 0.00 0.00 0.00 0.00 0.00 0.00
0.00 0.00 0.00 0.00 0.00 0.00 0.00 0.00 0.00 0.00 0.00 0.00 0.00 0.00 0.00 0.00 0.00 0.01 0.01 0.01 0.02 0.01 0.01 0.00 0.00 0.00 0.00 0.00 0.00 0.00 0.00 0.00 0.00 0.00 0.00 0.00 0.00 0.00 0.00 0.00 0.00 0.00 0.00 0.00 0.00 0.00 0.00 0.00 0.00
0.00 0.00 0.00 0.00 0.00 0.00 0.00 0.00 0.00 0.00 0.00 0.00 0.00 0.00 0.00 0.00 0.00 0.00 0.00 0.00 0.00 0.00 0.01 0.00 0.00 0.00 0.00 0.00 0.00 0.00 0.00 0.00 0.00 0.00 0.00 0.00 0.00 0.00 0.00 0.00 0.00 0.00 0.00 0.00 0.00 0.00 0.00 0.00 0.00
0.00 0.00 0.00 0.00 0.00 0.00 0.00 0.00 0.00 0.00 0.00 0.00 0.00 0.00 0.00 0.00 0.00 0.00 0.00 0.00 0.00 0.00 0.00 0.00 0.00 0.00 0.00 0.00 0.00 0.00 0.00 0.00 0.00 0.00 0.00 0.00 0.00 0.00 0.00 0.00 0.00 0.00 0.00 0.00 0.00 0.00 0.00 0.00 0.00
0.00 0.00 0.00 0.00 0.00 0.00 0.00 0.00 0.00 0.00 0.00 0.00 0.00 0.00 0.00 0.00 0.00 0.00 0.00 0.00 0.00 0.00 0.00 0.00 0.00 0.00 0.00 0.00 0.00 0.00 0.00 0.00 0.00 0.00 0.00 0.00 0.00 0.00 0.00 0.00 0.00 0.00 0.00 0.00 0.00 0.00 0.00 0.00 0.00
0.00 0.00 0.00 0.00 0.00 0.00 0.00 0.00 0.00 0.00 0.00 0.00 0.00 0.00 0.00 0.00 0.00 0.00 0.00 0.00 0.00 0.00 0.00 0.00 0.00 0.00 0.00 0.00 0.00 0.00 0.00 0.00 0.00 0.00 0.00 0.00 0.00 0.00 0.00 0.00 0.00 0.00 0.00 0.00 0.00 0.00 0.00 0.00 0.00
0.00 0.00 0.00 0.00 0.00 0.00 0.00 0.00 0.00 0.00 0.00 0.00 0.00 0.00 0.00 0.00 0.00 0.00 0.00 0.00 0.00 0.00 0.00 0.00 0.00 0.00 0.00 0.00 0.00 0.00 0.00 0.00 0.00 0.00 0.00 0.00 0.00 0.00 0.00 0.00 0.00 0.00 0.00 0.00 0.00 0.00 0.00 0.00 0.00
0.00 0.00 0.00 0.00 0.00 0.00 0.00 0.00 0.00 0.00 0.00 0.00 0.00 0.00 0.00 0.00 0.00 0.00 0.00 0.00 0.00 0.00 0.00 0.00 0.00 0.00 0.00 0.00 0.00 0.00 0.00 0.00 0.00 0.00 0.00 0.00 0.00 0.00 0.00 0.00 0.00 0.00 0.00 0.00 0.00 0.00 0.00 0.00 0.00
0.00 0.00 0.00 0.00 0.00 0.00 0.00 0.00 0.00 0.00 0.00 0.00 0.00 0.00 0.00 0.00 0.00 0.00 0.00 0.00 0.00 0.00 0.00 0.00 0.00 0.00 0.00 0.00 0.00 0.00 0.00 0.00 0.00 0.00 0.00 0.00 0.00 0.00 0.00 0.00 0.00 0.00 0.00 0.00 0.00 0.00 0.00 0.00 0.00
0.00 0.00 0.00 0.00 0.00 0.00 0.00 0.00 0.00 0.00 0.00 0.00 0.00 0.00 0.00 0.00 0.00 0.00 0.00 0.00 0.00 0.00 0.00 0.00 0.00 0.00 0.00 0.00 0.00 0.00 0.00 0.00 0.00 0.00 0.00 0.00 0.00 0.00 0.00 0.00 0.00 0.00 0.00 0.00 0.00 0.00 0.00 0.00 0.00
0.00 0.00 0.00 0.00 0.00 0.00 0.00 0.00 0.00 0.00 0.00 0.00 0.00 0.00 0.00 0.00 0.00 0.00 0.00 0.00 0.00 0.00 0.00 0.00 0.00 0.00 0.00 0.00 0.00 0.00 0.00 0.00 0.00 0.00 0.00 0.00 0.00 0.00 0.00 0.00 0.00 0.00 0.00 0.00 0.00 0.00 0.00 0.00 0.00
0.00 0.00 0.00 0.00 0.00 0.00 0.00 0.00 0.00 0.00 0.00 0.00 0.00 0.00 0.00 0.00 0.00 0.00 0.00 0.00 0.00 0.00 0.00 0.00 0.00 0.00 0.00 0.00 0.00 0.00 0.00 0.00 0.00 0.00 0.00 0.00 0.00 0.00 0.00 0.00 0.00 0.00 0.00 0.00 0.00 0.00 0.00 0.00 0.00
0.00 0.00 0.00 0.00 0.00 0.00 0.00 0.00 0.00 0.00 0.00 0.00 0.00 0.00 0.00 0.00 0.00 0.00 0.00 0.00 0.00 0.00 0.00 0.00 0.00 0.00 0.00 0.00 0.00 0.00 0.00 0.00 0.00 0.00 0.00 0.00 0.00 0.00 0.00 0.00 0.00 0.00 0.00 0.00 0.00 0.00 0.00 0.00 0.00
0.00 0.00 0.00 0.00 0.00 0.00 0.00 0.00 0.00 0.00 0.00 0.00 0.00 0.00 0.00 0.00 0.00 0.00 0.00 0.00 0.00 0.00 0.00 0.00 0.00 0.00 0.00 0.00 0.00 0.00 0.00 0.00 0.00 0.00 0.00 0.00 0.00 0.00 0.00 0.00 0.00 0.00 0.00 0.00 0.00 0.00 0.00 0.00 0.00
0.00 0.00 0.00 0.00 0.00 0.00 0.00 0.00 0.00 0.00 0.00 0.00 0.00 0.00 0.00 0.00 0.00 0.00 0.00 0.00 0.00 0.00 0.00 0.00 0.00 0.00 0.00 0.00 0.00 0.00 0.00 0.00 0.00 0.00 0.00 0.00 0.00 0.00 0.00 0.00 0.00 0.00 0.00 0.00 0.00 0.00 0.00 0.00 0.00
0.00 0.00 0.00 0.00 0.00 0.00 0.00 0.00 0.00 0.00 0.00 0.00 0.00 0.00 0.00 0.00 0.00 0.00 0.00 0.00 0.00 0.00 0.00 0.00 0.00 0.00 0.00 0.00 0.00 0.00 0.00 0.00 0.00 0.00 0.00 0.00 0.00 0.00 0.00 0.00 0.00 0.00 0.00 0.00 0.00 0.00 0.00 0.00 0.00
0.00 0.00 0.00 0.00 0.00 0.00 0.00 0.00 0.00 0.00 0.00 0.00 0.00 0.00 0.00 0.00 0.00 0.00 0.00 0.00 0.00 0.00 0.00 0.00 0.00 0.00 0.00 0.00 0.00 0.00 0.00 0.00 0.00 0.00 0.00 0.00 0.00 0.00 0.00 0.00 0.00 0.00 0.00 0.00 0.00 0.00 0.00 0.00 0.00
0.00 0.00 0.00 0.00 0.00 0.00 0.00 0.00 0.00 0.00 0.00 0.00 0.00 0.00 0.00 0.00 0.00 0.00 0.00 0.00 0.00 0.00 0.00 0.00 0.00 0.00 0.00 0.00 0.00 0.00 0.00 0.00 0.00 0.00 0.00 0.00 0.00 0.00 0.00 0.00 0.00 0.00 0.00 0.00 0.00 0.00 0.00 0.00 0.00
0.00 0.00 0.00 0.00 0.00 0.00 0.00 0.00 0.00 0.00 0.00 0.00 0.00 0.00 0.00 0.00 0.00 0.00 0.00 0.00 0.00 0.00 0.00 0.00 0.00 0.00 0.00 0.00 0.00 0.00 0.00 0.00 0.00 0.00 0.00 0.00 0.00 0.00 0.00 0.00 0.00 0.00 0.00 0.00 0.00 0.00 0.00 0.00 0.00
0.00 0.00 0.00 0.00 0.00 0.00 0.00 0.00 0.00 0.00 0.00 0.00 0.00 0.00 0.00 0.00 0.00 0.00 0.00 0.00 0.00 0.00 0.00 0.00 0.00 0.00 0.00 0.00 0.00 0.00 0.00 0.00 0.00 0.00 0.00 0.00 0.00 0.00 0.00 0.00 0.00 0.00 0.00 0.00 0.00 0.00 0.00 0.00 0.00
0.00 0.00 0.00 0.00 0.00 0.00 0.00 0.00 0.00 0.00 0.00 0.00 0.00 0.00 0.00 0.00 0.00 0.00 0.00 0.00 0.00 0.00 0.00 0.00 0.00 0.00 0.00 0.00 0.00 0.00 0.00 0.00 0.00 0.00 0.00 0.00 0.00 0.00 0.00 0.00 0.00 0.00 0.00 0.00 0.00 0.00 0.00 0.00 0.00
0.00 0.00 0.00 0.00 0.00 0.00 0.00 0.00 0.00 0.00 0.00 0.00 0.00 0.00 0.00 0.00 0.00 0.00 0.00 0.00 0.00 0.00 0.00 0.00 0.00 0.00 0.00 0.00 0.00 0.00 0.00 0.00 0.00 0.00 0.00 0.00 0.00 0.00 0.00 0.00 0.00 0.00 0.00 0.00 0.00 0.00 0.00 0.00 0.00
0.00 0.00 0.00 0.00 0.00 0.00 0.00 0.00 0.00 0.00 0.00 0.00 0.00 0.00 0.00 0.00 0.00 0.00 0.00 0.00 0.00 0.00 0.00 0.00 0.00 0.00 0.00 0.00 0.00 0.00 0.00 0.00 0.00 0.00 0.00 0.00 0.00 0.00 0.00 0.00 0.00 0.00 0.00 0.00 0.00 0.00 0.00 0.00 0.00
MSLP
1012.22 1011.98 1012.21 1012.72 1014.16 1014.55 1014.29 1013.53 1012.28 1011.70 1011.81 1012.04 1011.68 1011.90 1013.20 1014.01 1014.72 1015.97 1015.82 1015.84 1015.90 1016.19 1016.37 1016.34 1016.43 1016.22 1016.40 1016.18 1016.15 1016.00 1015.98 1015.88 1016.02 1015.88 1015.99 1016.19 1016.32 1016.43 1016.43 1016.36 1016.31 1016.76 1016.81 1017.12 1016.98 1016.09 1017.01 1017.22 1017.41
1012.28 1011.92 1012.46 1013.60 1014.56 1015.23 1014.01 1013.10 1012.04 1011.58 1012.05 1012.23 1012.66 1012.92 1013.25 1014.78 1014.82 1015.51 1015.67 1016.00 1015.94 1015.99 1016.82 1016.28 1016.75 1016.53 1016.43 1016.40 1016.46 1016.25 1016.02 1016.23 1016.27 1016.28 1016.29 1016.35 1016.36 1016.50 1016.57 1016.60 1017.00 1017.11 1017.37 1017.29 1016.77 1016.61 1017.13 1017.30 1017.20
1012.01 1012.20 1013.56 1014.18 1014.61 1014.85 1013.66 1012.73 1012.15 1012.26 1012.16 1011.89 1012.70 1013.05 1013.49 1014.59 1014.89 1015.15 1015.24 1015.67 1016.07 1016.59 1016.85 1016.93 1017.00 1016.73 1016.70 1016.61 1016.64 1016.35 1016.39 1016.63 1016.68 1016.64 1016.46 1016.47 1016.67 1016.78 1016.83 1016.93 1017.38 1017.41 1017.56 1017.54 1017.31 1016.93 1017.15 1017.13 1017.49
1012.19 1013.00 1014.26 1014.38 1014.65 1014.00 1013.16 1012.32 1011.70 1012.07 1012.29 1012.64 1013.00 1013.91 1014.05 1014.11 1014.36 1014.64 1014.84 1015.56 1016.65 1016.92 1017.09 1017.05 1016.97 1016.93 1016.64 1016.91 1017.07 1017.18 1016.97 1017.03 1016.90 1016.80 1016.73 1017.08 1016.99 1017.00 1017.11 1017.44 1017.38 1017.47 1017.34 1017.56 1017.27 1017.37 1017.73 1017.55 1017.32
1012.68 1013.86 1014.77 1014.80 1014.29 1013.20 1012.69 1012.08 1011.99 1012.67 1013.21 1013.40 1013.57 1014.60 1014.57 1014.56 1014.26 1014.21 1014.88 1015.42 1016.54 1017.04 1017.03 1017.00 1017.19 1017.16 1017.28 1017.40 1017.46 1017.50 1017.53 1017.14 1017.25 1017.15 1017.18 1017.26 1017.10 1017.22 1017.25 1017.57 1017.41 1017.62 1017.29 1017.53 1017.41 1017.50 1017.91 1017.61 1017.57
1013.35 1014.54 1015.39 1015.14 1014.04 1013.01 1012.48 1012.00 1012.26 1012.97 1013.60 1013.90 1014.15 1014.59 1014.95 1014.60 1014.68 1014.71 1015.28 1015.57 1016.17 1016.67 1016.96 1016.89 1017.25 1017.04 1017.24 1017.29 1017.21 1017.14 1017.19 1017.12 1017.10 1017.25 1017.29 1017.20 1017.23 1017.20 1017.31 1017.50 1017.36 1017.65 1017.62 1017.69 1017.70 1017.52 1017.81 1017.93 1017.99
1013.36 1014.71 1015.23 1014.60 1014.43 1013.19 1012.26 1011.88 1012.10 1012.65 1013.18 1013.72 1013.73 1014.74 1015.27 1015.09 1014.37 1014.72 1015.18 1015.63 1015.84 1016.35 1016.97 1017.40 1017.53 1017.45 1017.41 1017.26 1017.28 1017.24 1017.23 1017.27 1017.31 1017.35 1017.44 1017.42 1017.36 1017.41 1017.40 1017.40 1017.42 1017.46 1017.47 1017.46 1017.56 1017.58 1017.76 1017.86 1017.91
1012.78 1014.25 1014.98 1014.77 1014.23 1013.43 1012.63 1011.88 1012.11 1012.56 1012.95 1013.42 1013.50 1014.50 1014.83 1014.64 1014.64 1014.84 1015.22 1015.75 1016.31 1016.64 1016.93 1017.47 1017.56 1017.67 1017.53 1017.29 1017.23 1017.35 1017.28 1017.55 1017.62 1017.54 1017.46 1017.49 1017.52 1017.49 1017.37 1017.50 1017.56 1017.59 1017.63 1017.64 1017.77 1017.82 1017.88 1017.86 1018.01
1012.45 1014.31 1015.35 1014.75 1014.00 1013.58 1012.75 1012.19 1011.88 1012.15 1012.83 1013.43 1013.44 1013.80 1013.79 1014.02 1014.56 1015.02 1015.71 1016.46 1016.69 1016.97 1017.35 1017.32 1017.17 1017.25 1017.32 1017.38 1017.21 1017.22 1017.10 1017.26 1017.49 1017.50 1017.64 1017.85 1018.04 1018.07 1018.03 1017.97 1017.95 1017.94 1017.91 1018.02 1018.13 1018.18 1018.22 1018.35 1018.28
1013.07 1014.63 1014.47 1014.24 1013.67 1013.20 1012.99 1012.31 1012.15 1012.47 1013.18 1013.85 1014.08 1014.07 1014.10 1014.29 1014.59 1015.05 1015.52 1016.34 1016.67 1017.01 1017.13 1017.07 1016.82 1016.90 1017.21 1017.04 1017.15 1017.23 1017.12 1017.31 1017.47 1017.69 1017.86 1018.01 1018.24 1018.40 1018.50 1018.54 1018.58 1018.59 1018.54 1018.39 1018.28 1018.38 1018.31 1018.34 1018.52
1013.20 1014.02 1013.70 1013.51 1013.16 1012.53 1012.54 1012.42 1012.31 1012.75 1013.37 1013.61 1014.18 1014.29 1014.33 1014.45 1014.65 1014.81 1015.37 1015.80 1016.25 1016.39 1016.67 1016.78 1016.65 1016.62 1016.82 1016.85 1017.14 1017.30 1017.20 1017.39 1017.65 1017.73 1017.85 1018.05 1018.32 1018.52 1018.70 1018.87 1018.98 1019.04 1019.00 1019.16 1019.10 1018.96 1018.81 1018.77 1018.76
1013.08 1013.17 1013.08 1012.98 1012.43 1012.32 1012.43 1012.31 1012.69 1012.88 1013.03 1013.10 1013.46 1013.69 1014.32 1014.63 1014.72 1014.76 1015.27 1015.64 1016.13 1016.42 1016.71 1016.83 1016.54 1016.73 1017.09 1017.24 1017.39 1017.42 1017.49 1017.66 1017.91 1018.00 1018.16 1018.38 1018.57 1018.75 1018.83 1018.88 1018.85 1018.97 1019.04 1019.08 1019.16 1019.31 1019.30 1019.27 1019.29
1012.92 1013.13 1012.76 1012.59 1012.41 1012.32 1012.25 1012.48 1012.81 1012.81 1012.76 1013.06 1013.17 1013.75 1014.16 1014.37 1014.51 1014.63 1015.01 1015.27 1015.94 1016.37 1016.62 1016.71 1016.52 1016.75 1017.03 1017.25 1017.38 1017.44 1017.52 1017.59 1017.64 1017.73 1017.76 1017.84 1018.21 1018.46 1018.55 1018.58 1018.71 1018.77 1018.88 1019.01 1019.07 1019.03 1019.06 1019.09 1018.96
1012.87 1012.89 1012.98 1012.70 1012.63 1012.49 1012.65 1012.85 1013.04 1012.42 1012.73 1013.25 1013.32 1013.53 1013.79 1014.15 1014.18 1014.64 1015.18 1015.46 1015.65 1015.88 1016.25 1016.24 1016.40 1016.43 1016.77 1017.36 1017.51 1017.67 1017.67 1017.75 1017.82 1017.88 1017.94 1017.94 1018.15 1018.33 1018.45 1018.58 1018.59 1018.69 1018.68 1018.74 1018.82 1018.95 1018.96 1018.90 1018.81
1013.00 1013.33 1012.95 1012.53 1012.52 1012.60 1012.69 1013.14 1013.05 1012.33 1012.69 1013.15 1013.38 1013.34 1013.57 1013.73 1013.91 1014.14 1014.37 1014.75 1014.83 1015.38 1015.71 1016.17 1016.27 1016.42 1016.66 1017.06 1017.28 1017.52 1017.64 1017.76 1017.85 1017.83 1017.80 1017.89 1018.06 1018.16 1018.29 1018.51 1018.60 1018.57 1018.53 1018.65 1018.84 1018.99 1019.01 1019.04 1018.86
1013.59 1013.76 1013.78 1012.56 1012.47 1012.69 1013.10 1013.24 1012.59 1012.36 1012.72 1013.06 1013.28 1013.48 1013.56 1013.67 1013.58 1013.83 1013.95 1014.13 1014.74 1015.22 1015.67 1015.97 1016.26 1016.56 1016.76 1016.93 1017.15 1017.36 1017.51 1017.72 1017.76 1017.71 1017.63 1017.66 1017.74 1017.85 1018.09 1018.40 1018.54 1018.52 1018.62 1018.73 1018.91 1018.97 1018.99 1019.03 1019.02
1015.01 1014.82 1014.51 1013.52 1013.23 1013.42 1013.63 1013.50 1012.68 1012.30 1012.68 1012.93 1013.19 1013.52 1013.69 1013.90 1013.89 1013.86 1013.99 1014.56 1015.00 1015.34 1015.91 1016.32 1016.48 1016.64 1016.80 1016.98 1017.14 1017.29 1017.32 1017.59 1017.61 1017.57 1017.57 1017.48 1017.52 1017.67 1018.05 1018.37 1018.43 1018.39 1018.52 1018.70 1018.79 1018.92 1018.98 1019.03 1018.88
1015.88 1015.51 1014.88 1014.54 1014.25 1013.88 1013.77 1013.48 1012.89 1012.57 1012.37 1012.63 1012.90 1013.62 1013.96 1013.85 1013.81 1013.53 1013.86 1014.67 1015.35 1015.76 1016.05 1016.25 1016.41 1016.43 1016.64 1016.90 1017.11 1017.28 1017.36 1017.38 1017.50 1017.48 1017.45 1017.30 1017.33 1017.39 1017.76 1018.02 1018.18 1018.15 1018.43 1018.58 1018.70 1018.73 1018.72 1018.72 1018.69
1015.73 1015.81 1015.79 1015.14 1014.74 1014.38 1013.97 1013.79 1012.86 1012.68 1012.81 1013.08 1013.55 1013.88 1014.29 1014.48 1014.57 1014.17 1014.22 1014.52 1015.23 1015.68 1015.84 1016.02 1016.20 1016.25 1016.55 1016.90 1017.30 1017.50 1017.53 1017.16 1017.13 1017.11 1016.94 1017.01 1016.92 1016.97 1017.17 1017.56 1017.70 1017.85 1018.12 1018.17 1018.31 1018.46 1018.68 1018.69 1018.47
1015.80 1016.08 1016.17 1015.61 1015.02 1015.09 1014.28 1013.81 1012.92 1012.88 1013.18 1013.17 1013.52 1013.95 1014.37 1014.62 1014.59 1014.83 1015.22 1015.37 1015.23 1015.35 1015.63 1015.77 1015.87 1015.98 1016.17 1016.42 1016.39 1016.46 1016.49 1016.38 1016.27 1016.10 1016.37 1016.42 1016.50 1016.42 1016.56 1016.86 1017.14 1017.41 1017.72 1017.94 1018.01 1018.19 1018.52 1018.61 1018.38
1016.21 1016.38 1016.44 1016.55 1015.81 1015.08 1014.85 1014.52 1013.89 1013.45 1013.25 1013.57 1013.77 1013.95 1014.13 1014.31 1014.71 1014.95 1015.14 1015.32 1015.51 1015.57 1015.50 1015.47 1015.42 1015.53 1015.62 1015.70 1015.93 1016.10 1016.23 1016.16 1016.05 1015.74 1015.62 1015.42 1015.48 1015.56 1015.63 1015.83 1016.24 1016.65 1016.95 1017.23 1017.43 1017.55 1018.05 1018.43 1018.25
1016.56 1016.25 1016.44 1016.63 1016.92 1016.61 1016.14 1015.98 1014.54 1014.02 1014.00 1014.04 1014.13 1014.13 1014.24 1014.58 1014.79 1014.83 1015.09 1015.40 1015.69 1015.40 1015.52 1015.38 1015.20 1015.22 1015.23 1015.37 1015.84 1015.89 1015.73 1015.64 1014.98 1014.56 1014.50 1014.40 1014.29 1014.54 1014.77 1015.07 1015.49 1016.03 1016.56 1017.00 1017.31 1017.46 1017.97 1018.14 1018.53
1016.73 1016.41 1016.58 1016.69 1017.40 1017.65 1017.30 1016.77 1015.05 1014.62 1014.51 1014.24 1014.81 1014.93 1015.11 1015.18 1015.07 1015.19 1015.27 1015.29 1015.34 1015.37 1015.36 1015.31 1015.22 1015.38 1015.27 1015.41 1015.48 1015.47 1015.38 1014.83 1014.22 1014.21 1014.00 1013.77 1013.79 1013.61 1013.81 1014.34 1014.86 1015.43 1015.98 1016.60 1017.04 1017.59 1017.72 1017.85 1018.15
1016.82 1016.76 1017.07 1017.60 1018.18 1018.89 1018.31 1017.94 1016.38 1015.54 1014.72 1015.01 1015.32 1015.30 1015.24 1015.33 1015.36 1015.30 1015.13 1015.28 1015.53 1015.56 1015.71 1015.56 1015.79 1015.75 1015.53 1015.30 1015.08 1015.12 1014.84 1014.31 1014.06 1013.69 1013.62 1013.56 1013.57 1013.91 1014.23 1014.21 1014.91 1015.62 1015.99 1015.83 1016.12 1016.98 1017.51 1017.40 1017.32
1017.49 1017.96 1019.13 1020.02 1020.32 1020.46 1018.65 1017.93 1017.34 1015.81 1014.87 1014.83 1015.08 1015.45 1015.55 1015.50 1015.46 1015.45 1015.45 1015.93 1016.11 1016.12 1016.01 1016.11 1016.24 1016.10 1015.36 1015.29 1014.86 1014.27 1014.05 1013.78 1013.64 1013.29 1013.30 1013.66 1013.93 1014.01 1014.99 1015.18 1015.62 1015.94 1016.33 1016.41 1016.91 1017.11 1017.04 1017.60 1017.24
1018.38 1019.28 1020.82 1022.19 1023.00 1022.06 1019.55 1018.40 1017.09 1015.74 1015.15 1015.08 1015.23 1015.53 1015.47 1015.85 1015.91 1015.94 1016.15 1016.49 1016.62 1016.53 1016.41 1016.36 1015.93 1015.88 1015.28 1014.81 1014.32 1013.96 1013.74 1013.56 1013.34 1013.14 1013.03 1013.49 1013.88 1014.41 1015.26 1016.05 1016.32 1016.36 1016.32 1016.44 1016.80 1017.13 1017.21 1017.18 1016.79
1018.78 1019.76 1020.77 1022.34 1024.05 1023.81 1021.03 1018.72 1016.99 1015.62 1015.63 1015.81 1015.92 1015.83 1016.12 1016.29 1016.36 1016.38 1016.55 1016.95 1017.16 1017.13 1017.00 1016.81 1016.53 1016.03 1015.19 1014.63 1014.20 1014.14 1013.71 1013.48 1013.57 1013.42 1013.42 1013.90 1014.25 1014.69 1015.14 1015.34 1015.89 1016.43 1016.74 1016.67 1016.70 1016.60 1016.37 1016.27 1016.26
1018.94 1020.01 1021.29 1022.98 1024.46 1024.38 1022.02 1019.87 1017.82 1016.41 1016.14 1015.93 1016.56 1016.25 1016.54 1016.74 1016.77 1016.92 1016.99 1017.17 1017.23 1016.85 1016.58 1016.11 1015.92 1015.84 1015.43 1014.80 1014.64 1014.47 1014.04 1013.77 1013.65 1013.70 1014.11 1014.37 1014.65 1014.83 1014.88 1015.32 1016.22 1016.56 1016.47 1016.42 1016.21 1016.04 1015.94 1015.94 1015.87
1020.03 1021.12 1022.00 1023.02 1024.29 1024.37 1023.00 1020.57 1017.85 1017.32 1017.15 1016.94 1016.79 1017.11 1017.14 1017.38 1017.49 1017.48 1017.53 1017.48 1017.14 1016.87 1016.74 1016.59 1016.26 1016.03 1015.55 1014.91 1014.78 1014.58 1014.15 1013.97 1013.99 1014.16 1014.43 1014.52 1014.71 1014.39 1014.68 1015.27 1015.58 1015.70 1015.72 1015.57 1015.73 1015.75 1015.66 1015.75 1015.70
1020.75 1021.64 1022.81 1024.33 1025.00 1024.96 1023.72 1020.24 1017.81 1017.71 1017.12 1017.24 1017.54 1017.64 1017.76 1017.76 1017.92 1017.92 1017.74 1017.53 1017.27 1017.03 1016.63 1016.25 1015.97 1015.73 1015.33 1014.90 1014.78 1014.66 1014.45 1014.38 1014.48 1014.53 1014.64 1014.75 1014.84 1014.84 1014.89 1015.13 1015.27 1015.25 1015.36 1015.33 1015.39 1015.40 1015.31 1015.34 1015.29
Thickness
5734 5735 5733 5721 5684 5668 5660 5683 5705 5704 5709 5715 5726 5722 5708 5705 5694 5673 5701 5702 5700 5697 5695 5696 5696 5697 5694 5693 5691 5695 5695 5698 5694 5694 5693 5692 5688 5686 5684 5683 5682 5676 5676 5674 5674 5679 5664 5662 5663
5728 5731 5721 5696 5658 5645 5658 5692 5698 5708 5707 5715 5715 5713 5707 5689 5700 5693 5694 5695 5696 5693 5687 5695 5691 5693 5692 5690 5688 5689 5691 5690 5688 5686 5684 5684 5683 5680 5678 5676 5672 5670 5667 5668 5671 5669 5661 5659 5657
5725 5724 5696 5673 5652 5651 5668 5694 5705 5700 5707 5716 5707 5710 5704 5690 5695 5694 5698 5696 5693 5689 5688 5688 5686 5688 5686 5686 5684 5684 5683 5682 5680 5679 5679 5677 5674 5672 5672 5670 5665 5664 5661 5660 5660 5661 5658 5659 5652
5714 5704 5687 5663 5666 5685 5691 5693 5707 5707 5705 5706 5705 5689 5698 5704 5698 5702 5702 5695 5686 5683 5681 5682 5681 5681 5682 5679 5675 5672 5673 5672 5673 5672 5670 5665 5664 5664 5662 5660 5662 5660 5658 5653 5655 5652 5647 5647 5648
5706 5686 5660 5660 5671 5691 5695 5700 5701 5692 5690 5693 5697 5680 5682 5695 5699 5702 5696 5694 5684 5678 5676 5676 5675 5674 5671 5668 5665 5664 5663 5666 5664 5663 5662 5660 5659 5657 5657 5653 5655 5652 5653 5647 5648 5644 5640 5643 5645
5685 5677 5649 5650 5671 5690 5695 5697 5698 5690 5686 5688 5685 5680 5678 5694 5692 5693 5690 5687 5680 5677 5673 5672 5667 5666 5662 5661 5661 5662 5661 5660 5659 5658 5656 5656 5655 5654 5652 5649 5650 5646 5645 5643 5642 5642 5636 5636 5633
5682 5665 5653 5663 5660 5681 5695 5703 5692 5690 5689 5687 5690 5672 5676 5681 5691 5691 5687 5683 5679 5674 5667 5662 5659 5657 5656 5659 5657 5656 5655 5654 5652 5651 5649 5648 5648 5647 5647 5646 5644 5643 5641 5640 5637 5636 5633 5632 5631
5690 5674 5663 5660 5660 5675 5692 5702 5693 5695 5691 5694 5693 5670 5671 5683 5687 5685 5681 5678 5674 5669 5663 5656 5655 5653 5654 5655 5654 5651 5651 5647 5645 5644 5644 5643 5642 5641 5642 5639 5637 5636 5635 5633 5631 5629 5626 5625 5623
5703 5658 5646 5660 5669 5676 5687 5691 5702 5705 5697 5693 5693 5687 5692 5690 5686 5681 5674 5666 5664 5662 5657 5656 5657 5656 5655 5653 5652 5650 5650 5646 5642 5642 5639 5636 5633 5632 5632 5631 5630 5628 5628 5625 5623 5623 5621 5618 5617
5684 5651 5668 5679 5681 5683 5686 5690 5694 5694 5685 5681 5683 5690 5691 5690 5687 5680 5673 5665 5662 5658 5658 5660 5661 5659 5655 5653 5651 5648 5647 5643 5640 5636 5633 5630 5627 5624 5622 5620 5619 5618 5617 5617 5617 5614 5616 5616 5613
5690 5668 5683 5687 5694 5695 5692 5692 5697 5689 5680 5687 5680 5685 5688 5687 5684 5682 5677 5676 5670 5669 5664 5661 5660 5660 5657 5655 5651 5648 5647 5643 5638 5634 5631 5628 5624 5620 5616 5614 5610 5609 5607 5605 5604 5604 5604 5605 5605
5683 5692 5694 5696 5703 5701 5695 5699 5690 5692 5691 5699 5695 5694 5687 5685 5684 5683 5679 5676 5670 5667 5663 5660 5661 5658 5653 5650 5647 5645 5642 5638 5634 5631 5627 5622 5618 5615 5612 5610 5607 5603 5601 5600 5597 5593 5592 5592 5591
5690 5693 5699 5703 5702 5702 5704 5696 5692 5694 5700 5698 5696 5691 5687 5685 5682 5684 5679 5676 5670 5665 5663 5659 5659 5655 5651 5646 5643 5641 5637 5634 5631 5627 5624 5620 5614 5609 5607 5605 5601 5598 5595 5593 5591 5589 5586 5584 5584
5698 5699 5698 5699 5699 5699 5693 5692 5694 5698 5700 5695 5694 5689 5687 5686 5685 5681 5675 5672 5670 5668 5664 5662 5659 5655 5649 5642 5637 5634 5632 5629 5625 5620 5616 5613 5608 5604 5600 5596 5593 5590 5589 5587 5584 5583 5581 5579 5578
5701 5688 5692 5697 5701 5696 5698 5685 5684 5701 5700 5695 5693 5692 5689 5689 5687 5683 5682 5677 5676 5670 5666 5660 5656 5652 5647 5641 5635 5629 5625 5621 5618 5615 5611 5605 5600 5598 5595 5592 5588 5585 5582 5578 5574 5570 5569 5568 5568
5688 5683 5668 5695 5698 5701 5692 5665 5695 5703 5697 5693 5690 5690 5689 5688 5689 5686 5685 5683 5676 5669 5664 5659 5654 5647 5643 5638 5632 5627 5621 5615 5612 5608 5604 5599 5594 5589 5586 5582 5577 5574 5571 5567 5562 5559 5556 5553 5551
5663 5656 5665 5679 5695 5691 5686 5673 5694 5701 5695 5693 5689 5686 5686 5683 5685 5684 5683 5678 5671 5665 5658 5651 5646 5642 5636 5630 5626 5621 5616 5610 5604 5601 5596 5591 5586 5580 5573 5568 5564 5560 5557 5554 5550 5546 5543 5540 5538
5652 5656 5664 5669 5679 5678 5676 5675 5688 5697 5696 5695 5689 5683 5681 5681 5683 5682 5678 5670 5663 5657 5652 5647 5641 5637 5630 5623 5617 5611 5606 5602 5596 5590 5587 5583 5577 5570 5564 5558 5553 5549 5544 5540 5535 5532 5530 5525 5524
5670 5661 5657 5668 5677 5674 5672 5669 5685 5695 5687 5683 5680 5676 5671 5670 5671 5672 5671 5667 5659 5653 5648 5641 5635 5630 5621 5614 5606 5600 5595 5593 5588 5580 5575 5570 5568 5562 5555 5547 5542 5537 5533 5529 5524 5518 5513 5508 5507
5665 5660 5653 5662 5675 5671 5672 5673 5682 5688 5685 5681 5676 5671 5666 5665 5665 5663 5661 5658 5655 5650 5644 5637 5629 5621 5613 5607 5603 5597 5592 5589 5584 5577 5569 5561 5555 5551 5546 5539 5532 5526 5520 5515 5511 5504 5497 5492 5488
5658 5657 5654 5652 5662 5669 5671 5666 5673 5683 5683 5678 5677 5673 5671 5666 5660 5658 5657 5652 5647 5643 5639 5635 5627 5617 5609 5603 5596 5589 5583 5578 5574 5568 5563 5558 5551 5544 5539 5531 5522 5513 5506 5500 5496 5491 5484 5477 5473
5646 5666 5661 5655 5648 5635 5659 5628 5660 5666 5666 5668 5665 5663 5663 5659 5656 5656 5649 5641 5636 5636 5631 5626 5621 5613 5603 5596 5586 5578 5575 5568 5567 5563 5555 5551 5545 5537 5529 5519 5511 5502 5494 5485 5479 5474 5466 5460 5453
5650 5662 5657 5658 5642 5640 5636 5629 5646 5656 5653 5655 5648 5647 5645 5643 5642 5640 5636 5634 5628 5625 5619 5611 5606 5597 5590 5584 5579 5572 5566 5565 5562 5553 5548 5542 5536 5530 5522 5511 5502 5492 5482 5472 5463 5452 5445 5440 5434
5658 5656 5651 5647 5637 5608 5633 5623 5622 5631 5642 5631 5632 5634 5632 5630 5628 5625 5625 5622 5615 5609 5604 5600 5590 5582 5576 5571 5565 5558 5550 5547 5541 5538 5532 5527 5520 5511 5501 5496 5483 5471 5463 5459 5450 5436 5426 5421 5418
5641 5630 5598 5598 5588 5592 5627 5618 5616 5632 5636 5635 5630 5623 5621 5619 5616 5613 5614 5604 5598 5593 5587 5578 5569 5562 5561 5551 5547 5545 5542 5537 5530 5527 5521 5508 5499 5492 5480 5472 5460 5449 5438 5431 5423 5415 5412 5404 5399
5631 5622 5583 5583 5567 5584 5618 5616 5618 5638 5640 5634 5627 5618 5615 5614 5609 5608 5600 5590 5583 5577 5567 5561 5559 5550 5548 5545 5543 5538 5532 5524 5518 5513 5506 5495 5481 5469 5459 5445 5436 5427 5420 5414 5405 5397 5392 5388 5385
5626 5605 5619 5590 5534 5553 5589 5617 5630 5634 5628 5622 5617 5615 5606 5605 5600 5597 5590 5578 5567 5559 5552 5545 5542 5541 5541 5537 5533 5526 5520 5513 5501 5494 5486 5475 5464 5451 5438 5429 5419 5409 5402 5397 5391 5385 5382 5377 5373
5628 5623 5587 5563 5547 5556 5575 5590 5597 5616 5614 5617 5601 5601 5596 5591 5588 5581 5571 5562 5556 5554 5548 5544 5537 5530 5524 5520 5512 5506 5501 5495 5485 5473 5459 5450 5442 5433 5423 5411 5397 5387 5380 5375 5373 5370 5367 5362 5359
5604 5588 5588 5584 5558 5547 5545 5569 5605 5604 5596 5590 5588 5582 5581 5576 5569 5563 5556 5549 5543 5537 5531 5525 5521 5515 5511 5507 5499 5492 5485 5475 5463 5450 5438 5430 5421 5416 5406 5393 5383 5376 5369 5364 5358 5354 5350 5345 5343
5608 5594 5579 5538 5550 5537 5527 5567 5608 5592 5592 5578 5576 5574 5569 5564 5555 5547 5542 5538 5533 5527 5522 5519 5512 5504 5498 5493 5484 5474 5466 5456 5443 5431 5419 5407 5397 5390 5383 5373 5365 5360 5355 5350 5344 5340 5337 5333 5330